This demonstration page uses our WeatherBlox Daily Observations layout. Learn more.

Left ArrowRight Arrow

Hourly Observations for August 30, 2020

Temp ( °F °C ) Dew Point ( °F °C ) Humidity (%) Winds ( mph kmh ) Pressure ( in mb ) Visibility ( mi km ) Precip ( " mm )
12:53 am 00:53 Clear 64 17.8 57 13.9 78 78 NW 3 6 29.86 1011 10 16.0934 N/A
1:53 am 01:53 Clear 61 16.1 56 13.3 84 84 NW 3 6 29.87 1012 10 16.0934 N/A
2:53 am 02:53 Clear 57 13.9 56 13.3 96 96 NNW 3 6 29.87 1012 10 16.0934 N/A
3:53 am 03:53 Clear 56 13.3 53 11.7 90 90 N 6 9 29.88 1012 10 16.0934 N/A
4:53 am 04:53 Clear 55 12.8 53 11.7 93 93 N N/A 29.89 1012 10 16.0934 N/A
5:53 am 05:53 Clear 53 11.7 52 11.1 96 96 N N/A 29.9 1013 10 16.0934 N/A
6:53 am 06:53 Clear 52 11.1 51 10.6 97 97 N N/A 29.91 1013 10 16.0934 N/A
7:53 am 07:53 Sunny 55 12.8 53 11.7 93 93 N N/A 29.93 1014 10 16.0934 N/A
8:53 am 08:53 Sunny 63 17.2 58 14.4 84 84 N N/A 29.93 1014 10 16.0934 N/A
9:53 am 09:53 Sunny 68 20 59 15 73 73 N N/A 29.94 1014 10 16.0934 N/A
10:53 am 10:53 Sunny 72 22.2 58 14.4 61 61 N N/A 29.96 1015 10 16.0934 N/A
11:53 am 11:53 Sunny 76 24.4 54 12.2 47 47 VRB 3 6 29.95 1014 10 16.0934 N/A
12:53 pm 12:53 Sunny 77 25 55 12.8 47 47 VRB 5 7 29.93 1014 10 16.0934 N/A
1:53 pm 13:53 Sunny 78 25.6 55 12.8 45 45 ESE 5 7 29.91 1013 10 16.0934 N/A
2:53 pm 14:53 Sunny 78 25.6 55 12.8 45 45 E 6 9 29.89 1012 10 16.0934 N/A
3:53 pm 15:53 Sunny 79 26.1 54 12.2 42 42 VRB 3 6 29.86 1011 10 16.0934 N/A
4:53 pm 16:53 Sunny 80 26.7 54 12.2 41 41 VRB 3 6 29.86 1011 10 16.0934 N/A
5:53 pm 17:53 Sunny 78 25.6 54 12.2 43 43 NE 5 7 29.86 1011 10 16.0934 N/A
6:53 pm 18:53 Sunny 75 23.9 56 13.3 52 52 E 10 17 29.85 1011 10 16.0934 N/A
7:53 pm 19:53 Sunny 72 22.2 59 15 64 64 N N/A 29.87 1012 10 16.0934 N/A
8:53 pm 20:53 Clear 64 17.8 60 15.6 87 87 N N/A 29.89 1012 10 16.0934 N/A
9:53 pm 21:53 Clear 63 17.2 58 14.4 84 84 E 3 6 29.89 1012 10 16.0934 N/A
10:53 pm 22:53 Clear 62 16.7 59 15 90 90 N N/A 29.88 1012 10 16.0934 N/A
11:53 pm 23:53 Clear 60 15.6 57 13.9 90 90 N N/A 29.88 1012 10 16.0934 N/A

Powered by AerisWeather